Location: Tucson
(32.2220°N, 110.9260°W)
Time: 02:22:59
(UTC-07:00)

Envisat - Visible Passes

Search period start: 24 January 2018 00:00
Search period end: 03 February 2018 00:00
Orbit: 764 x 766 km, 98.2° (Epoch: 23 January)

Date Brightness Start Highest point End Pass type
(mag) Time Alt. Az. Time Alt. Az. Time Alt. Az.
24 Jan 5.0 19:19:27 12° NNE 19:19:27 12° NNE 19:19:55 10° NNE visible
25 Jan 5.3 20:22:13 14° NNW 20:22:13 14° NNW 20:22:56 10° NNW visible
26 Jan 4.8 19:44:45 18° N 19:44:45 18° N 19:46:04 10° N visible
27 Jan 4.8 19:07:18 14° NNE 19:07:18 14° NNE 19:08:24 10° NNE visible
27 Jan 5.5 20:47:29 14° NW 20:47:29 14° NW 20:48:12 10° NNW visible
28 Jan 4.7 20:10:01 23° NNW 20:10:01 23° NNW 20:11:50 10° NNW visible
29 Jan 4.3 19:32:33 23° NNE 19:32:33 23° NNE 19:34:46 10° N visible
29 Jan 5.9 21:12:44 11° NW 21:12:44 11° NW 21:12:54 10° NW visible
30 Jan 4.7 18:55:05 14° NE 18:55:05 14° NE 18:56:42 10° NNE visible
30 Jan 4.9 20:35:16 23° NW 20:35:16 23° NW 20:37:14 10° NNW visible
31 Jan 3.9 19:57:47 34° N 19:57:47 34° N 20:00:40 10° N visible
01 Feb 4.0 19:20:17 25° NE 19:20:17 25° NE 19:23:22 10° NNE visible
01 Feb 5.3 21:00:27 18° NW 21:00:27 18° NW 21:02:14 10° NW visible
02 Feb 4.7 18:42:47 12° ENE 18:42:47 12° ENE 18:44:37 10° NE visible
02 Feb 4.0 20:22:57 39° NW 20:22:57 39° NW 20:26:14 10° NNW visible
